{"data":{"norad_id":54026,"epoch":"2026-09-20T04:33:32.747904Z","epoch_age_seconds":41230,"freshness":"FRESH","line1":"1 54026U 22128A   26263.18996236  .00000075  00000+0  00000+0 0  9995","line2":"2 54026   0.0151 214.0848 0001931 316.7137 123.6853  1.00272542 14696","mean_motion":1.00272542,"eccentricity":0.0001931,"inclination_deg":0.0151,"raan_deg":214.0848,"arg_perigee_deg":316.7137,"mean_anomaly_deg":123.6853,"bstar":0,"rev_number":1469,"period_min":1436.086062324,"perigee_km":35778.240779183,"apogee_km":35794.524716709,"semimajor_km":42164.519747946,"source":"CELESTRAK","updated_at":"2026-09-20T09:00:35.524903Z"}}